Weather History for Whiting Fld NAS, FL

Change the Weather History Date:

Saturday, August 30, 2014

  Actual Average Record
Temperature  
Mean Temperature 82 °F -  
Max Temperature 91 °F 86 °F 102 °F (2011)
Min Temperature 73 °F 70 °F 68 °F (2011)
Cooling Degree Days 17    
Growing Degree Days 32 (Base 50)    
Moisture  
Dew Point 73 °F    
Average Humidity 76    
Maximum Humidity 93    
Minimum Humidity 55    
Precipitation  
Precipitation 0.00 in - - ()
Sea Level Pressure  
Sea Level Pressure 30.03 in    
Wind  
Wind Speed 6 mph (South)    
Max Wind Speed 18 mph    
Max Gust Speed 24 mph    
Visibility 10 miles    
Events      
Averages and records for this station are not official NWS values.
T = Trace of Precipitation, MM = Missing Value Source: NWS Daily Summary

Daily Weather History Graph

Daily Weather History Graph

Search for Another Location

Airport:

Trip Planner

Search our weather history database for the weather conditions in past years. The results will help you decide how hot, cold, wet, or windy it might be!

Date:

Astronomy

Aug. 30, 2014 Rise Set
Actual Time 6:23 AM CDT 7:13 PM CDT
Civil Twilight 5:58 AM CDT 7:38 PM CDT
Nautical Twilight 5:29 AM CDT 8:07 PM CDT
Astronomical Twilight 4:59 AM CDT 8:36 PM CDT
Moon 10:48 AM CDT (8/30) 10:10 PM CDT (8/30)
Length of Visible Light 13h 39m
Length of Day
12h 50m
Waxing Crescent, 23% of the Moon is Illuminated
Aug 30
Waxing Crescent
Sep 2
First Quarter
Sep 8
Full
Sep 15
Last Quarter
Sep 24
New

Hourly Weather History & Observations

Time (CDT) Temp. Heat Index Dew Point Humidity Pressure Visibility Wind Dir Wind Speed Gust Speed Precip Events Conditions
12:56 AM 75.9 °F - 71.1 °F 85% 30.02 in 10.0 mi WSW 5.8 mph - N/A   Partly Cloudy
1:56 AM 75.9 °F - 72.0 °F 87% 30.01 in 10.0 mi South 3.5 mph - N/A   Clear
2:56 AM 75.9 °F - 72.0 °F 87% 30.01 in 10.0 mi Calm Calm - N/A   Clear
3:56 AM 75.0 °F - 72.0 °F 90% 30.00 in 10.0 mi Calm Calm - N/A   Clear
4:56 AM 73.9 °F - 72.0 °F 93% 30.01 in 10.0 mi Calm Calm - N/A   Clear
5:56 AM 75.0 °F - 72.0 °F 90% 30.02 in 9.0 mi ESE 4.6 mph - N/A   Clear
6:56 AM 75.9 °F - 73.0 °F 91% 30.03 in 10.0 mi Calm Calm - N/A   Clear
7:56 AM 79.0 °F - 73.9 °F 84% 30.04 in 10.0 mi East 4.6 mph - N/A   Clear
8:56 AM 84.0 °F 92.6 °F 75.9 °F 76% 30.04 in 10.0 mi Variable 5.8 mph - N/A   Clear
9:56 AM 84.9 °F 93.3 °F 75.0 °F 72% 30.05 in 10.0 mi SE 5.8 mph - N/A   Scattered Clouds
10:56 AM 89.1 °F 99.1 °F 75.0 °F 63% 30.05 in 10.0 mi South 10.4 mph - N/A   Clear
11:56 AM 91.9 °F 103.2 °F 75.0 °F 58% 30.04 in 10.0 mi South 13.8 mph - N/A   Scattered Clouds
12:56 PM 91.0 °F 99.3 °F 73.0 °F 55% 30.03 in 10.0 mi South 16.1 mph 21.9 mph N/A   Scattered Clouds
1:56 PM 91.9 °F 101.3 °F 73.9 °F 55% 30.01 in 10.0 mi South 18.4 mph 24.2 mph N/A   Partly Cloudy
2:56 PM 90.0 °F 96.9 °F 72.0 °F 55% 30.01 in 10.0 mi South 17.3 mph - N/A   Partly Cloudy
3:56 PM 88.0 °F 94.7 °F 72.0 °F 59% 30.01 in 10.0 mi South 13.8 mph - N/A   Clear
4:56 PM 88.0 °F 94.7 °F 72.0 °F 59% 30.01 in 10.0 mi SSW 15.0 mph 19.6 mph N/A   Clear
5:56 PM 86.0 °F 95.1 °F 75.0 °F 70% 30.02 in 10.0 mi SSW 8.1 mph - N/A   Clear
6:56 PM 84.0 °F 91.2 °F 73.9 °F 72% 30.02 in 10.0 mi South 9.2 mph - N/A   Clear
7:56 PM 82.0 °F 88.6 °F 75.0 °F 79% 30.03 in 10.0 mi South 6.9 mph - N/A   Clear
8:56 PM 81.0 °F 86.2 °F 73.9 °F 79% 30.04 in 10.0 mi Calm Calm - N/A   Clear
9:56 PM 78.1 °F - 75.0 °F 90% 30.05 in 10.0 mi Calm Calm - N/A   Unknown
10:56 PM 77.0 °F - 73.9 °F 90% 30.06 in 10.0 mi Calm Calm - N/A   Clear
11:56 PM 78.1 °F - 73.9 °F 87% 30.05 in 10.0 mi Calm Calm - N/A   Clear